Meteo pe oră la Dziechno

Astăzi, 3 Martie, Miercuri

Timp Temperatura Precipitaţii Vânt Presiune Umiditate
00:00 +1°C° 0 mm 2 m/s 758 mmHg 95%
01:00 -1°C° 0 mm 2 m/s 758 mmHg 95%
02:00 -1°C° 0 mm 2 m/s 757 mmHg 95%
03:00 -1°C° 0 mm 2 m/s 757 mmHg 95%
04:00 -1°C° 0 mm 2 m/s 756 mmHg 95%
05:00 -1°C° 0 mm 2 m/s 756 mmHg 95%
06:00 -1°C° 0 mm 2 m/s 756 mmHg 95%
07:00 -1°C° 0 mm 2 m/s 756 mmHg 97%
08:00 0°C° 0 mm 3 m/s 755 mmHg 90%
09:00 +2°C° 0 mm 3 m/s 755 mmHg 83%
10:00 +3°C° 0 mm 3 m/s 755 mmHg 77%
11:00 +4°C° 0 mm 3 m/s 754 mmHg 71%
12:00 +5°C° 0 mm 3 m/s 754 mmHg 65%
13:00 +8°C° 0 mm 3 m/s 753 mmHg 59%
14:00 +7°C° 0 mm 3 m/s 752 mmHg 60%
15:00 +7°C° 0 mm 3 m/s 752 mmHg 61%
16:00 +7°C° 0 mm 2 m/s 751 mmHg 61%
17:00 +6°C° 0 mm 2 m/s 750 mmHg 67%
18:00 +5°C° 0 mm 2 m/s 750 mmHg 73%
19:00 +4°C° 0 mm 2 m/s 749 mmHg 79%
20:00 +3°C° 0 mm 3 m/s 748 mmHg 82%
21:00 +2°C° 0 mm 3 m/s 747 mmHg 86%
22:00 +2°C° 0 mm 3 m/s 747 mmHg 89%
23:00 +1°C° 0 mm 4 m/s 746 mmHg 90%

Mâine, 4 Martie, Joi

Timp Temperatura Precipitaţii Vânt Presiune Umiditate
00:00 +1°C° 0 mm 4 m/s 746 mmHg 91%
01:00 +1°C° 0 mm 5 m/s 745 mmHg 93%
02:00 0°C° 0 mm 5 m/s 745 mmHg 93%
03:00 0°C° 0 mm 5 m/s 744 mmHg 94%
04:00 0°C° 0 mm 5 m/s 743 mmHg 95%
05:00 0°C° 0 mm 5 m/s 743 mmHg 94%
06:00 -1°C° 0 mm 5 m/s 743 mmHg 94%
07:00 -1°C° 0 mm 5 m/s 743 mmHg 94%
08:00 -1°C° 0 mm 4 m/s 743 mmHg 92%
09:00 0°C° 0 mm 4 m/s 744 mmHg 91%
10:00 0°C° 0 mm 4 m/s 744 mmHg 90%
11:00 0°C° 0.1 mm 4 m/s 744 mmHg 91%
12:00 0°C° 0.1 mm 4 m/s 744 mmHg 92%
13:00 -1°C° 0.1 mm 5 m/s 744 mmHg 93%
14:00 -1°C° 0.3 mm 5 m/s 744 mmHg 91%
15:00 -2°C° 0.3 mm 5 m/s 745 mmHg 89%
16:00 -2°C° 0.3 mm 5 m/s 745 mmHg 87%
17:00 -3°C° 0 mm 4 m/s 745 mmHg 85%
18:00 -3°C° 0 mm 4 m/s 745 mmHg 82%
19:00 -2°C° 0 mm 3 m/s 746 mmHg 80%
20:00 -2°C° 0 mm 3 m/s 746 mmHg 80%
21:00 -2°C° 0 mm 3 m/s 746 mmHg 81%
22:00 -4°C° 0 mm 3 m/s 746 mmHg 81%
23:00 -4°C° 0 mm 3 m/s 747 mmHg 80%

Poimâine, 5 Martie, Vineri

Timp Temperatura Precipitaţii Vânt Presiune Umiditate
00:00 -3°C° 0 mm 2 m/s 747 mmHg 78%
01:00 -3°C° 0 mm 2 m/s 747 mmHg 77%
02:00 -2°C° 0 mm 2 m/s 747 mmHg 75%
03:00 -2°C° 0 mm 2 m/s 747 mmHg 73%
04:00 -2°C° 0 mm 2 m/s 747 mmHg 72%
05:00 -2°C° 0 mm 2 m/s 747 mmHg 71%
06:00 -2°C° 0 mm 3 m/s 748 mmHg 71%
07:00 -2°C° 0 mm 3 m/s 748 mmHg 70%
08:00 -1°C° 0.1 mm 3 m/s 748 mmHg 64%
09:00 0°C° 0.1 mm 3 m/s 748 mmHg 57%
10:00 0°C° 0.1 mm 4 m/s 749 mmHg 51%
11:00 0°C° 0.2 mm 4 m/s 749 mmHg 53%
12:00 0°C° 0.2 mm 4 m/s 749 mmHg 55%
13:00 0°C° 0.2 mm 4 m/s 750 mmHg 57%
14:00 -1°C° 0.1 mm 4 m/s 750 mmHg 59%
15:00 -1°C° 0.1 mm 4 m/s 750 mmHg 62%
16:00 -1°C° 0.1 mm 4 m/s 750 mmHg 64%
17:00 -1°C° 0.1 mm 3 m/s 751 mmHg 70%
18:00 -2°C° 0.1 mm 3 m/s 751 mmHg 75%
19:00 -4°C° 0.1 mm 3 m/s 752 mmHg 81%
20:00 -4°C° 0 mm 3 m/s 752 mmHg 78%
21:00 -4°C° 0 mm 3 m/s 752 mmHg 76%
22:00 -4°C° 0 mm 3 m/s 753 mmHg 74%
23:00 -4°C° 0 mm 3 m/s 753 mmHg 72%

6 Martie, Sâmbătă

Timp Temperatura Precipitaţii Vânt Presiune Umiditate
00:00 -3°C° 0 mm 2 m/s 754 mmHg 71%
01:00 -3°C° 0 mm 2 m/s 754 mmHg 69%
02:00 -3°C° 0 mm 2 m/s 754 mmHg 69%
03:00 -3°C° 0 mm 2 m/s 754 mmHg 69%
04:00 -3°C° 0 mm 2 m/s 754 mmHg 69%
05:00 -3°C° 0 mm 2 m/s 754 mmHg 68%
06:00 -3°C° 0 mm 2 m/s 755 mmHg 68%
07:00 -3°C° 0 mm 2 m/s 755 mmHg 68%
08:00 -2°C° 0 mm 3 m/s 755 mmHg 61%
09:00 -1°C° 0 mm 3 m/s 755 mmHg 54%
10:00 -1°C° 0 mm 4 m/s 755 mmHg 47%
11:00 0°C° 0 mm 5 m/s 755 mmHg 46%
12:00 -1°C° 0 mm 6 m/s 755 mmHg 46%
13:00 0°C° 0 mm 7 m/s 755 mmHg 45%
14:00 -1°C° 0 mm 7 m/s 754 mmHg 49%
15:00 -1°C° 0 mm 8 m/s 753 mmHg 53%
16:00 -2°C° 0 mm 8 m/s 753 mmHg 57%
17:00 -2°C° 0.1 mm 8 m/s 752 mmHg 67%
18:00 -4°C° 0.1 mm 9 m/s 751 mmHg 78%
19:00 -4°C° 0.1 mm 9 m/s 751 mmHg 89%
20:00 -4°C° 0.1 mm 9 m/s 751 mmHg 88%
21:00 -3°C° 0.1 mm 9 m/s 750 mmHg 88%
22:00 -3°C° 0.1 mm 9 m/s 750 mmHg 87%
23:00 -3°C° 0 mm 9 m/s 749 mmHg 85%

7 Martie, Duminică

Timp Temperatura Precipitaţii Vânt Presiune Umiditate
00:00 -3°C° 0 mm 9 m/s 749 mmHg 82%
01:00 -3°C° 0 mm 10 m/s 748 mmHg 79%
02:00 -3°C° 0 mm 10 m/s 748 mmHg 80%
03:00 -3°C° 0 mm 10 m/s 747 mmHg 81%
04:00 -3°C° 0 mm 10 m/s 747 mmHg 81%
05:00 -3°C° 0 mm 9 m/s 747 mmHg 82%
06:00 -3°C° 0 mm 9 m/s 747 mmHg 83%
07:00 -2°C° 0 mm 8 m/s 747 mmHg 84%
08:00 -2°C° 0.1 mm 8 m/s 747 mmHg 87%
09:00 -2°C° 0.1 mm 8 m/s 747 mmHg 91%
10:00 -2°C° 0.1 mm 8 m/s 748 mmHg 94%
11:00 -2°C° 0.1 mm 8 m/s 747 mmHg 93%
12:00 -2°C° 0.1 mm 8 m/s 747 mmHg 93%
13:00 -2°C° 0.1 mm 8 m/s 747 mmHg 92%
14:00 -2°C° 0.1 mm 8 m/s 747 mmHg 93%
15:00 -2°C° 0.1 mm 7 m/s 747 mmHg 94%
16:00 -2°C° 0.1 mm 7 m/s 747 mmHg 95%
17:00 -3°C° 0.5 mm 6 m/s 747 mmHg 96%
18:00 -3°C° 0.5 mm 6 m/s 747 mmHg 96%
19:00 -2°C° 0.5 mm 5 m/s 747 mmHg 97%
20:00 -2°C° 0.7 mm 4 m/s 747 mmHg 97%
21:00 -2°C° 0.7 mm 3 m/s 747 mmHg 97%
22:00 -2°C° 0.7 mm 3 m/s 747 mmHg 96%
23:00 -2°C° 0.5 mm 3 m/s 747 mmHg 95%

8 Martie, Luni

Timp Temperatura Precipitaţii Vânt Presiune Umiditate
00:00 -4°C° 0.5 mm 3 m/s 747 mmHg 94%
01:00 -3°C° 0.5 mm 2 m/s 747 mmHg 93%
02:00 -3°C° 0.2 mm 2 m/s 747 mmHg 91%
03:00 -3°C° 0.2 mm 2 m/s 747 mmHg 88%
04:00 -4°C° 0.2 mm 2 m/s 747 mmHg 86%
05:00 -4°C° 0 mm 2 m/s 747 mmHg 83%
06:00 -3°C° 0 mm 2 m/s 747 mmHg 81%
07:00 -3°C° 0 mm 2 m/s 748 mmHg 79%
08:00 -4°C° 0 mm 3 m/s 748 mmHg 73%
09:00 -2°C° 0 mm 3 m/s 749 mmHg 68%
10:00 -2°C° 0 mm 4 m/s 749 mmHg 62%
11:00 -2°C° 0 mm 4 m/s 750 mmHg 64%
12:00 -2°C° 0 mm 4 m/s 750 mmHg 65%
13:00 -2°C° 0 mm 4 m/s 751 mmHg 67%
14:00 -2°C° 0 mm 4 m/s 751 mmHg 67%
15:00 -3°C° 0 mm 4 m/s 751 mmHg 68%
16:00 -3°C° 0 mm 4 m/s 751 mmHg 68%
17:00 -4°C° 0 mm 4 m/s 751 mmHg 72%
18:00 -5°C° 0 mm 3 m/s 752 mmHg 77%
19:00 -6°C° 0 mm 3 m/s 752 mmHg 81%
20:00 -5°C° 0 mm 2 m/s 752 mmHg 80%
21:00 -5°C° 0 mm 2 m/s 753 mmHg 79%
22:00 -5°C° 0 mm 2 m/s 753 mmHg 78%
23:00 -5°C° 0 mm 2 m/s 753 mmHg 78%
Arată mai mult

Formular de consimțământ

Meteoprog și furnizorii noștri de servicii pot stoca și accesa date personale, precum cookies, identificatori de dispozitiv sau alte tehnologii similare pe dispozitivul dumneavoastră și procesa astfel de date pentru a personaliza conținutul și reclamele, dar și pentru a oferi caracteristici de social media și pentru a analiza traficul.

  • Stocarea și/sau accesarea informațiilor pe dispozitivul dumneavoastră

    Cookies, identificatori de dispozitiv sau alte informații pot fi stocate sau accesate pe dispozitiv în scopurile indicate mai sus.

  • Reclame și conținut personalizat, evaluarea reclamelor și a conținutului, informații despre audiențe și dezvoltarea produselor

    Reclamele și conținutul pot fi personalizate pe baza unui profil. Pot fi adăugate date suplimentare pentru a personaliza mai bine reclamele și conținutul. Performanța reclamelor și conținutului poate fi măsurată. Pot fi obținute informații despre utilizatorii care au văzut reclamele și conținutul. Aceste date pot fi utilizate pentru a dezvolta sau îmbunătăți experiența utilizatorilor, sistemele și software-ul.

Dând clic pe ‘Sunt de acord’, permiteți utilizarea cookie-urilor menționate, a identificatorilor de dispozitiv, balizelor web sau altor tehnologii similare. Setările pot fi modificate din browser-ul dispozitivului dumneavoastră.

În anumite scopuri, interesele legitime pot prima asupra consimțământului. Puteți citi mai multe informații în acest sens în Politica privind Confidențialitatea Datelor și Cookie.